Location: St. Louis
(38.6270°N, 90.1994°W)
Time: 12:00:16
(UTC-06:00)

Explorer 11/Cluster Stage 4 - Visible Passes

Search period start: 06 December 2021 00:00
Search period end: 16 December 2021 00:00
Orbit: 467 x 1255 km, 28.8° (Epoch: 05 December)

Date Brightness Start Highest point End Pass type
(mag) Time Alt. Az. Time Alt. Az. Time Alt. Az.
06 Dec 8.4 03:56:39 33° SSE 03:56:39 33° SSE 04:02:17 10° ESE visible
06 Dec 8.9 05:38:46 12° WSW 05:43:47 24° SSW 05:49:57 10° SSE visible
07 Dec 8.7 03:46:05 28° SSE 03:46:05 28° SSE 03:50:31 10° SE visible
07 Dec 8.9 05:28:10 14° WSW 05:32:13 21° SSW 05:37:54 10° SSE visible
08 Dec 9.0 03:35:30 22° SSE 03:35:30 22° SSE 03:38:41 10° SE visible
08 Dec 8.9 05:17:36 15° SW 05:20:39 19° SSW 05:25:45 10° SSE visible
09 Dec 9.3 03:24:57 17° SE 03:24:57 17° SE 03:26:49 10° SE visible
09 Dec 8.9 05:07:04 14° SW 05:09:06 16° SSW 05:13:26 10° SSE visible
10 Dec 9.6 03:14:26 12° SE 03:14:26 12° SE 03:14:55 10° SE visible
10 Dec 9.1 04:56:32 13° SSW 04:57:35 13° SSW 05:00:52 10° S visible
11 Dec 9.2 04:46:02 11° SSW 04:46:05 11° SSW 04:47:37 10° SSW visible
